Regional Weather Roundup
Issued by NWS Sterling, VA

Home | Current Version | Previous Version | Graphics & Text | Print | Product List | Glossary On
Versions: 1 2 3 4 5 6 7 8 9 10 11 12 13 14 15 16 17 18 19 20 21 22 23 24 25 26 27 28 29 30 31 32 33 34 35 36 37 38 39 40 41 42 43 44 45 46 47 48 49 50
000
ASUS41 KLWX 182210
RWRLWX

REGIONAL WEATHER ROUNDUP
NATIONAL WEATHER SERVICE BALTIMORE MD/WASHINGTON DC
500 PM EST WED JAN 18 2017

Note: "FAIR" indicates few or no clouds below 12,000 feet
with no significant weather and/or obstructions to visibility.
 TC=TEMPERATURE CELSIUS

 * =Non NWS site. Station does not report precipitation (e.g. rain,
    snow, etc.), thunder, or fog.

DCZ001-MDZ009-015-VAZ040>042-051-053>054-182300-
WASHINGTON METRO

CITY           SKY/WX    TMP DP  RH WIND       PRES   REMARKS
WASHINGTON NAT PTCLDY    56  37  49 N15       30.01R
DULLES         PTCLDY    52  35  52 NW15      30.01R
ANDREWS AFB    CLOUDY    53  37  54 NW15G23   29.99R
FT BELVOIR     PTCLDY    54  37  52 NW10      30.01R
QUANTICO       PTCLDY    55  38  52 N13G25    30.02R
COLLEGE PARK*  CLOUDY    52  36  54 NW10      30.01R
LEESBURG*      PTCLDY    52  39  62 NW14      30.02R
MANASSAS*      CLEAR    N/A N/A N/A N12G17    30.02R
GAITHERSBURG*  CLEAR     48  34  57 N6G20     30.05R

$$

MDZ006>007-011-014-182300-
BALTIMORE METRO

CITY           SKY/WX    TMP DP  RH WIND       PRES   REMARKS
BWI AIRPORT    MOCLDY    53  38  56 NW13      30.00R
MD SCIENCE CTR   N/A     54  36  50 MISG      29.99R
MARTIN STATE   MOCLDY    54  43  66 NW6       30.00R
ANNAPOLIS      CLOUDY    54  38  54 NW9       29.99R
FORT MEADE*    PTCLDY    50  36  57 NW7       30.03R

$$

MDZ012-015-019>023-182300-
MARYLAND EASTERN SHORE

CITY           SKY/WX    TMP DP  RH WIND       PRES   REMARKS
OCEAN CITY     CLOUDY    48  44  86 NE7       29.96R
SALISBURY      CLOUDY    53  42  66 N13       29.96R
BAY BRIDGE AP* CLOUDY    48  39  71 NW10      30.00R
CAMBRIDGE*     CLOUDY    52  41  66 NW7       29.99R
EASTON*        CLOUDY    54  41  62 N3        30.03R

$$

MDZ017>025-182300-
SOUTHERN MARYLAND

CITY           SKY/WX    TMP DP  RH WIND       PRES   REMARKS
PATUXENT RIVER MOCLDY    53  40  61 NW10      29.98R
ST INIGOES     CLOUDY    56  39  53 VRB3      29.98R
LEONARDTOWN*   CLOUDY    54  37  54 NW5       30.00R

$$

MDZ003>005-182300-
NORTH CENTRAL MARYLAND

CITY           SKY/WX    TMP DP  RH WIND       PRES   REMARKS
FREDERICK*     MOCLDY    50  37  62 NW9G16    30.05R
HAGERSTOWN APT CLOUDY    46  34  62 NW12      30.03R
WESTMINSTER*   CLOUDY    46  36  66 NW9       30.01R

$$

MDZ501>502-182300-
WESTERN MARYLAND

CITY           SKY/WX    TMP DP  RH WIND       PRES   REMARKS
OAKLAND*         N/A     32  32 100 W9        30.02S WCI  24
CUMBERLAND*    CLOUDY    45  34  65 NW5G22    30.12R

$$

VAZ025>031-182300-
SHENANDOAH VALLEY

CITY           SKY/WX    TMP DP  RH WIND       PRES   REMARKS
WINCHESTER*    PTCLDY    45  34  65 NW16G23   30.04R
FRONT ROYAL*   CLEAR     50  36  57 N9        30.01R
LURAY*         CLEAR     54  37  54 W3        30.01R
NEW MARKET*    CLEAR     52  32  46 SW6G17    30.00S
STAUNTON*      CLEAR     52  33  48 NW5       30.03R
WAYNESBORO*    CLEAR     53  32  45 NW6       30.01R

$$

WVZ021-048>050-054>055-182300-
EASTERN WEST VIRGINIA PANHANDLE

CITY           SKY/WX    TMP DP  RH WIND       PRES   REMARKS
MARTINSBURG    CLEAR     47  34  60 NW13      30.03R
PETERSBURG*    CLEAR     47  36  66 NW7       30.06R

$$

VAZ036>039-050-182300-
CENTRAL FOOTHILLS

CITY           SKY/WX    TMP DP  RH WIND       PRES   REMARKS
CHARLOTTESVILL CLEAR     58  34  40 CALM      30.00R
CULPEPER*      CLEAR     55  37  49 N6        30.01R
ORANGE*          N/A     57  34  41 CALM      30.01R
GORDONSVILLE*  CLEAR     57  35  43 MISG      29.99R
WARRENTON*     CLEAR     55  33  42 N7        30.00R

$$

VAZ055>057-182300-
NORTH AND CENTRAL PIEDMONT

CITY           SKY/WX    TMP DP  RH WIND       PRES   REMARKS
FREDERICKSBRG* CLEAR     57  38  49 N13       29.99R
STAFFORD*      CLEAR     54  36  51 N8        30.04R

$$

NCZ024-NYZ072-PAZ021-071-VAZ022-071-182300-
OTHER REGIONAL OBSERVATIONS

CITY           SKY/WX    TMP DP  RH WIND       PRES   REMARKS
NEW YORK CITY  CLOUDY    40  37  89 VRB6      30.01R
PHILADELPHIA   CLOUDY    47  40  76 N8        30.00R
PITTSBURGH     CLOUDY    40  35  83 SW6       30.08S
ROANOKE        PTCLDY    52  35  52 NW9       30.07R
RICHMOND       PTCLDY    59  38  45 N9        29.97R
RALEIGH        PTCLDY    65  34  31 VRB5      29.99R

$$

ANZ530>537-182300-
MARINE OBSERVATIONS

STATION/POSITION TIME  TEMP    WIND        PRES
                       AIR SEA DIR/SP/G
                 (UTC) (F)     (DEG/KT/KT) (MB)
THOMAS PT LIGHT  2200   54 39  320/ 13/ 16   N/A
BALT KEY BRIDGE  2148   52     290/ 16/ 19 1015.4R
COVE POINT       2148   50     360/ 15/ 17 1015.9R
LEWISETTA        2148   53 44  350/  4/  7 1014.7R
SOLOMONS ISLAND  2142   54 42  320/  8/ 10   N/A
PINEY POINT      2142          350/  6/  7   N/A

$$




USA.gov is the U.S. government's official web portal to all federal, state and local government web resources and services.